IRIDIUM 135 (43070 NORAD) Tracking and Keplerian Element Data

This shows tracking and keplerian element data for the satellite.

Feedback or suggestion? Click here.




ElementValue
Catalog43070
NameIRIDIUM 135
Epoch Orbit19679
Epoch Day268.42726268
Epoch Year2021
RAAN323.2338
Inclination86.3976
Eccentricity0.0002588
Argument of Perigee97.65
Mean Anonmoly262.499
Mean Motion14.34217021
Decay Rate9.2E-07
L11 43070U 17083A 21268.42726268 .00000092 00000-0 25960-4 0 9996
L22 43070 86.3976 323.2338 0002588 97.6500 262.4990 14.34217021196798

Live tracking and technical data element details for IRIDIUM 135 (NORAD 43070). IRIDIUM 135 can be tracked NOW for your location showing map with azimuth and elevation plus other details from your city location.

Track the satellite on the map from your city or location and see movement details for azimuth, elevation, latitude, longitude, range, height, and movement on the map or in text.







IsCatalogInMostPopularTable: catalog: 43070, numindb: 533
Update: records affected: 1



GetName: 43070 IRIDIUM 135

Hit Count: updated at: Mon, 27 Sep 2021 01:46:17 GMT